| time (UTC) | temp F | wind direction | speed MPH | gust MPH | rain 1hr in | rain 24hr in | rain mn in | humidity % | barometer mb |
| 20260506033427 | 61 | 240 | 0.0 | 0.0 | 0.00 | 0.00 | 0.00 | 78 | 1009.4 |
| 20260506032926 | 62 | 240 | 0.0 | 0.0 | 0.00 | 0.00 | 0.00 | 77 | 1009.3 |
| 20260506032427 | 62 | 283 | 0.0 | 0.0 | 0.00 | 0.00 | 0.00 | 77 | 1009.2 |
| 20260506031928 | 62 | 293 | 0.0 | 0.0 | 0.00 | 0.00 | 0.00 | 76 | 1009.2 |
| 20260506031427 | 62 | 295 | 0.0 | 0.0 | 0.00 | 0.00 | 0.00 | 76 | 1009.2 |
| 20260506030928 | 62 | 248 | 0.0 | 0.0 | 0.00 | 0.00 | 0.00 | 74 | 1009.2 |
| 20260506030432 | 63 | 240 | 0.0 | 0.0 | 0.00 | 0.00 | 0.00 | 73 | 1009.2 |
| 20260506030427 | 63 | 250 | 0.0 | 0.0 | 0.00 | 0.00 | 0.00 | 74 | 1009.1 |
| 20260506025925 | 63 | 241 | 0.0 | 0.0 | 0.00 | 0.00 | 0.00 | 74 | 1009.2 |
| 20260506024927 | 64 | 261 | 0.0 | 0.0 | 0.00 | 0.00 | 0.00 | 74 | 1009.2 |
| 20260506024425 | 63 | 230 | 0.0 | 0.0 | 0.00 | 0.00 | 0.00 | 77 | 1009.2 |
| 20260506023933 | 63 | 271 | 0.0 | 0.0 | 0.00 | 0.00 | 0.00 | 78 | 1009.2 |
| 20260506023927 | 63 | 183 | 0.0 | 0.0 | 0.00 | 0.00 | 0.00 | 77 | 1009.2 |
| 20260506023425 | 63 | 269 | 0.0 | 0.0 | 0.00 | 0.00 | 0.00 | 78 | 1009.2 |
| 20260506022429 | 63 | 0 | 0.0 | 0.0 | 0.00 | 0.00 | 0.00 | 77 | 1009.3 |
| 20260506022425 | 63 | 271 | 0.0 | 0.0 | 0.00 | 0.00 | 0.00 | 78 | 1009.3 |
| 20260506021426 | 63 | 326 | 0.0 | 0.0 | 0.00 | 0.00 | 0.00 | 77 | 1009.2 |
| 20260506020925 | 63 | 255 | 0.0 | 0.0 | 0.00 | 0.00 | 0.00 | 77 | 1009.4 |
| 20260506020423 | 63 | 255 | 0.0 | 0.0 | 0.00 | 0.00 | 0.00 | 77 | 1009.3 |
| 20260506015923 | 64 | 254 | 0.0 | 0.0 | 0.00 | 0.00 | 0.00 | 76 | 1009.2 |
| 20260506015424 | 64 | 254 | 0.0 | 0.0 | 0.00 | 0.00 | 0.00 | 75 | 1009.2 |
| 20260506014928 | 64 | 233 | 0.0 | 0.0 | 0.00 | 0.00 | 0.00 | 74 | 1009.0 |
| 20260506014925 | 64 | 252 | 0.0 | 0.0 | 0.00 | 0.00 | 0.00 | 74 | 1009.2 |
| 20260506013929 | 65 | 252 | 0.0 | 0.0 | 0.00 | 0.00 | 0.00 | 72 | 1009.0 |
| 20260506013924 | 65 | 255 | 0.0 | 0.0 | 0.00 | 0.00 | 0.00 | 73 | 1009.0 |
| 20260506012923 | 65 | 255 | 0.0 | 0.0 | 0.00 | 0.00 | 0.00 | 71 | 1009.0 |
| 20260506012423 | 65 | 269 | 0.0 | 0.0 | 0.00 | 0.00 | 0.00 | 70 | 1008.9 |
| 20260506011923 | 65 | 258 | 0.0 | 0.0 | 0.00 | 0.00 | 0.00 | 69 | 1008.9 |
| 20260506011423 | 66 | 258 | 0.0 | 0.0 | 0.00 | 0.00 | 0.00 | 68 | 1008.9 |
| 20260506010923 | 67 | 226 | 0.0 | 0.0 | 0.00 | 0.00 | 0.00 | 64 | 1008.8 |
| 20260506010423 | 67 | 358 | 0.0 | 0.0 | 0.00 | 0.00 | 0.00 | 63 | 1008.6 |
| 20260506005924 | 67 | 358 | 0.0 | 0.0 | 0.00 | 0.00 | 0.00 | 61 | 1008.7 |
| 20260506005421 | 68 | 358 | 0.0 | 0.0 | 0.00 | 0.00 | 0.00 | 59 | 1008.7 |
| 20260506004922 | 69 | 358 | 0.0 | 0.0 | 0.00 | 0.00 | 0.00 | 56 | 1008.6 |
| 20260506004430 | 69 | 265 | 0.0 | 0.0 | 0.00 | 0.00 | 0.00 | 57 | 1008.4 |
| 20260506004423 | 69 | 324 | 0.0 | 0.0 | 0.00 | 0.00 | 0.00 | 58 | 1008.4 |
| 20260506003923 | 68 | 355 | 0.0 | 0.0 | 0.00 | 0.00 | 0.00 | 58 | 1008.4 |
| 20260506002928 | 71 | 323 | 0.0 | 0.0 | 0.00 | 0.00 | 0.00 | 54 | 1008.2 |
| 20260506002923 | 69 | 265 | 0.0 | 0.0 | 0.00 | 0.00 | 0.00 | 54 | 1008.1 |
| 20260506002422 | 70 | 345 | 0.0 | 0.0 | 0.00 | 0.00 | 0.00 | 54 | 1008.1 |
| 20260506001421 | 71 | 357 | 0.0 | 0.0 | 0.00 | 0.00 | 0.00 | 50 | 1008.1 |
| 20260506000921 | 71 | 334 | 0.0 | 0.0 | 0.00 | 0.00 | 0.00 | 51 | 1008.1 |
| 20260506000423 | 71 | 337 | 0.0 | 0.0 | 0.00 | 0.00 | 0.00 | 49 | 1008.1 |
| 20260505235921 | 71 | 330 | 0.0 | 0.0 | 0.00 | 0.00 | 0.00 | 50 | 1008.1 |
| 20260505235420 | 71 | 324 | 0.0 | 0.0 | 0.00 | 0.00 | 0.00 | 50 | 1008.1 |
| 20260505234924 | 72 | 336 | 0.0 | 0.0 | 0.00 | 0.00 | 0.00 | 44 | 1007.8 |
| 20260505234920 | 72 | 268 | 0.0 | 0.0 | 0.00 | 0.00 | 0.00 | 47 | 1007.9 |
| 20260505233919 | 73 | 336 | 0.0 | 0.0 | 0.00 | 0.00 | 0.00 | 45 | 1007.8 |
| 20260505233420 | 73 | 334 | 0.0 | 0.0 | 0.00 | 0.00 | 0.00 | 44 | 1007.8 |
| 20260505232918 | 73 | 316 | 0.0 | 0.0 | 0.00 | 0.00 | 0.00 | 44 | 1007.7 |
| 20260505232426 | 74 | 337 | 0.0 | 0.0 | 0.00 | 0.00 | 0.00 | 41 | 1007.5 |
| 20260505232419 | 74 | 306 | 0.0 | 0.0 | 0.00 | 0.00 | 0.00 | 43 | 1007.7 |
| 20260505231918 | 74 | 336 | 0.0 | 0.0 | 0.00 | 0.00 | 0.00 | 42 | 1007.6 |
| 20260505230920 | 74 | 262 | 0.0 | 0.0 | 0.00 | 0.00 | 0.00 | 40 | 1007.5 |
| 20260505230419 | 75 | 226 | 0.0 | 0.0 | 0.00 | 0.00 | 0.00 | 40 | 1007.3 |
| 20260505225923 | 75 | 268 | 0.0 | 0.0 | 0.00 | 0.00 | 0.00 | 39 | 1007.3 |
| 20260505225918 | 75 | 341 | 0.0 | 0.0 | 0.00 | 0.00 | 0.00 | 39 | 1007.5 |
| 20260505224918 | 76 | 345 | 0.0 | 0.0 | 0.00 | 0.00 | 0.00 | 38 | 1007.3 |
| 20260505224418 | 76 | 289 | 0.0 | 0.0 | 0.00 | 0.00 | 0.00 | 37 | 1007.3 |
| 20260505223918 | 76 | 290 | 0.0 | 1.0 | 0.00 | 0.00 | 0.00 | 36 | 1007.2 |
| 20260505223419 | 76 | 327 | 0.0 | 10.0 | 0.00 | 0.00 | 0.00 | 36 | 1007.2 |
| 20260505222918 | 77 | 286 | 2.0 | 10.0 | 0.00 | 0.00 | 0.00 | 35 | 1007.1 |
| 20260505222416 | 76 | 268 | 0.0 | 1.0 | 0.00 | 0.00 | 0.00 | 36 | 1007.1 |
| 20260505221916 | 77 | 314 | 0.0 | 1.0 | 0.00 | 0.00 | 0.00 | 36 | 1006.9 |
| 20260505221416 | 77 | 324 | 0.0 | 0.0 | 0.00 | 0.00 | 0.00 | 36 | 1006.9 |
| 20260505220918 | 77 | 316 | 0.0 | 0.0 | 0.00 | 0.00 | 0.00 | 36 | 1006.8 |
| 20260505220421 | 77 | 288 | 0.0 | 3.0 | 0.00 | 0.00 | 0.00 | 35 | 1006.9 |
| 20260505220417 | 77 | 275 | 0.0 | 3.0 | 0.00 | 0.00 | 0.00 | 35 | 1006.9 |
| 20260505215421 | 77 | 25 | 0.0 | 3.0 | 0.00 | 0.00 | 0.00 | 37 | 1006.7 |
| 20260505215416 | 77 | 330 | 0.0 | 0.0 | 0.00 | 0.00 | 0.00 | 36 | 1006.8 |
| 20260505214915 | 77 | 330 | 0.0 | 0.0 | 0.00 | 0.00 | 0.00 | 35 | 1006.8 |
| 20260505213919 | 77 | 271 | 0.0 | 4.0 | 0.00 | 0.00 | 0.00 | 34 | 1006.6 |
| 20260505213915 | 77 | 309 | 0.0 | 3.0 | 0.00 | 0.00 | 0.00 | 34 | 1006.6 |
| 20260505212915 | 77 | 261 | 1.0 | 4.0 | 0.00 | 0.00 | 0.00 | 34 | 1006.5 |
| 20260505212415 | 77 | 275 | 0.0 | 0.0 | 0.00 | 0.00 | 0.00 | 35 | 1006.4 |
| 20260505211918 | 78 | 255 | 0.0 | 3.0 | 0.00 | 0.00 | 0.00 | 33 | 1006.3 |
| 20260505211914 | 78 | 18 | 0.0 | 3.0 | 0.00 | 0.00 | 0.00 | 35 | 1006.3 |
| 20260505210914 | 78 | 252 | 0.0 | 3.0 | 0.00 | 0.00 | 0.00 | 33 | 1006.2 |
| 20260505210413 | 78 | 228 | 0.0 | 3.0 | 0.00 | 0.00 | 0.00 | 33 | 1006.1 |
| 20260505205916 | 78 | 298 | 0.0 | 3.0 | 0.00 | 0.00 | 0.00 | 33 | 1006.0 |
| 20260505205418 | 78 | 296 | 1.0 | 11.0 | 0.00 | 0.00 | 0.00 | 33 | 1006.2 |
| 20260505205414 | 78 | 269 | 0.0 | 11.0 | 0.00 | 0.00 | 0.00 | 32 | 1006.1 |
| 20260505204412 | 79 | 247 | 0.0 | 5.0 | 0.00 | 0.00 | 0.00 | 33 | 1006.3 |
| 20260505203914 | 79 | 258 | 1.0 | 7.0 | 0.00 | 0.00 | 0.00 | 32 | 1006.1 |
| 20260505203414 | 79 | 286 | 1.0 | 10.0 | 0.00 | 0.00 | 0.00 | 35 | 1006.1 |
| 20260505202917 | 80 | 276 | 1.0 | 7.0 | 0.00 | 0.00 | 0.00 | 34 | 1006.2 |
| 20260505202913 | 79 | 338 | 0.0 | 10.0 | 0.00 | 0.00 | 0.00 | 34 | 1006.1 |
| 20260505201913 | 80 | 265 | 0.0 | 6.0 | 0.00 | 0.00 | 0.00 | 34 | 1006.1 |
| 20260505201412 | 79 | 300 | 1.0 | 6.0 | 0.00 | 0.00 | 0.00 | 34 | 1006.1 |
| 20260505200913 | 80 | 274 | 0.0 | 9.0 | 0.00 | 0.00 | 0.00 | 34 | 1006.2 |
| 20260505200418 | 80 | 314 | 1.0 | 11.0 | 0.00 | 0.00 | 0.00 | 33 | 1006.3 |
| 20260505200413 | 80 | 305 | 2.0 | 11.0 | 0.00 | 0.00 | 0.00 | 35 | 1006.2 |
| 20260505195417 | 81 | 343 | 1.0 | 12.0 | 0.00 | 0.00 | 0.00 | 34 | 1006.3 |
| 20260505195412 | 80 | 257 | 3.0 | 19.0 | 0.00 | 0.00 | 0.00 | 33 | 1006.2 |
| 20260505194911 | 80 | 314 | 1.0 | 19.0 | 0.00 | 0.00 | 0.00 | 32 | 1006.4 |
| 20260505193912 | 80 | 259 | 2.0 | 12.0 | 0.00 | 0.00 | 0.00 | 34 | 1006.4 |
| 20260505193410 | 79 | 296 | 0.0 | 27.0 | 0.00 | 0.00 | 0.00 | 34 | 1006.5 |
| 20260505192912 | 79 | 320 | 1.0 | 27.0 | 0.00 | 0.00 | 0.00 | 34 | 1006.6 |
| 20260505192410 | 80 | 269 | 9.0 | 19.0 | 0.00 | 0.00 | 0.00 | 33 | 1006.5 |
| 20260505191911 | 80 | 269 | 2.0 | 18.0 | 0.00 | 0.00 | 0.00 | 35 | 1006.5 |
| 20260505191415 | 80 | 254 | 2.0 | 13.0 | 0.00 | 0.00 | 0.00 | 32 | 1006.4 |
| 20260505191410 | 80 | 272 | 3.0 | 14.0 | 0.00 | 0.00 | 0.00 | 34 | 1006.6 |
| 20260505190410 | 80 | 286 | 3.0 | 13.0 | 0.00 | 0.00 | 0.00 | 34 | 1006.7 |
| 20260505185915 | 80 | 351 | 1.0 | 11.0 | 0.00 | 0.00 | 0.00 | 34 | 1006.8 |
| 20260505185910 | 80 | 309 | 1.0 | 13.0 | 0.00 | 0.00 | 0.00 | 34 | 1006.8 |
| 20260505185410 | 80 | 281 | 2.0 | 13.0 | 0.00 | 0.00 | 0.00 | 34 | 1007.0 |
| 20260505184409 | 79 | 228 | 2.0 | 14.0 | 0.00 | 0.00 | 0.00 | 34 | 1006.9 |
| 20260505183908 | 79 | 271 | 4.0 | 14.0 | 0.00 | 0.00 | 0.00 | 34 | 1007.1 |
| 20260505183409 | 79 | 282 | 2.0 | 14.0 | 0.00 | 0.00 | 0.00 | 34 | 1007.0 |
| 20260505182915 | 79 | 281 | 2.0 | 14.0 | 0.00 | 0.00 | 0.00 | 34 | 1006.9 |
| 20260505182909 | 79 | 298 | 4.0 | 19.0 | 0.00 | 0.00 | 0.00 | 34 | 1007.0 |
| 20260505182409 | 79 | 254 | 4.0 | 19.0 | 0.00 | 0.00 | 0.00 | 33 | 1007.0 |
| 20260505181909 | 79 | 264 | 2.0 | 12.0 | 0.00 | 0.00 | 0.00 | 34 | 1007.0 |
| 20260505180910 | 79 | 23 | 1.0 | 14.0 | 0.00 | 0.00 | 0.00 | 37 | 1007.3 |
| 20260505180409 | 79 | 193 | 2.0 | 12.0 | 0.00 | 0.00 | 0.00 | 35 | 1007.4 |
| 20260505175907 | 79 | 275 | 0.0 | 3.0 | 0.00 | 0.00 | 0.00 | 35 | 1007.4 |
| 20260505175407 | 79 | 31 | 0.0 | 6.0 | 0.00 | 0.00 | 0.00 | 38 | 1007.3 |
| 20260505174906 | 79 | 259 | 1.0 | 6.0 | 0.00 | 0.00 | 0.00 | 36 | 1007.3 |
| 20260505174408 | 79 | 244 | 0.0 | 18.0 | 0.00 | 0.00 | 0.00 | 38 | 1007.3 |
| 20260505173913 | 78 | 255 | 0.0 | 19.0 | 0.00 | 0.00 | 0.00 | 36 | 1007.4 |
| 20260505173908 | 78 | 341 | 3.0 | 18.0 | 0.00 | 0.00 | 0.00 | 36 | 1007.4 |
| 20260505173524 | 79 | 247 | 2.0 | 28.0 | 0.00 | 0.00 | 0.00 | 39 | 1007.3 |
| 20260505172411 | 79 | 296 | 0.0 | 22.0 | 0.00 | 0.00 | 0.00 | 41 | 1007.5 |
| 20260505172407 | 79 | 8 | 1.0 | 28.0 | 0.00 | 0.00 | 0.00 | 39 | 1007.5 |
| 20260505171407 | 79 | 241 | 6.0 | 22.0 | 0.00 | 0.00 | 0.00 | 36 | 1007.5 |
| 20260505170907 | 79 | 235 | 0.0 | 11.0 | 0.00 | 0.00 | 0.00 | 39 | 1007.6 |
| 20260505170406 | 79 | 274 | 2.0 | 11.0 | 0.00 | 0.00 | 0.00 | 40 | 1007.6 |
| 20260505165905 | 79 | 20 | 0.0 | 21.0 | 0.00 | 0.00 | 0.00 | 38 | 1007.6 |
| 20260505165411 | 79 | 320 | 0.0 | 12.0 | 0.00 | 0.00 | 0.00 | 42 | 1007.6 |
| 20260505165407 | 79 | 259 | 2.0 | 21.0 | 0.00 | 0.00 | 0.00 | 38 | 1007.6 |
| 20260505164406 | 78 | 234 | 0.0 | 12.0 | 0.00 | 0.00 | 0.00 | 42 | 1008.1 |
| 20260505163905 | 78 | 269 | 0.0 | 3.0 | 0.00 | 0.00 | 0.00 | 40 | 1007.8 |
| 20260505163405 | 78 | 274 | 0.0 | 3.0 | 0.00 | 0.00 | 0.00 | 41 | 1007.9 |
| 20260505162905 | 78 | 276 | 0.0 | 3.0 | 0.00 | 0.00 | 0.00 | 41 | 1008.1 |
| 20260505162403 | 78 | 296 | 0.0 | 13.0 | 0.00 | 0.00 | 0.00 | 40 | 1008.2 |
| 20260505161903 | 78 | 233 | 0.0 | 13.0 | 0.00 | 0.00 | 0.00 | 40 | 1008.4 |
| 20260505161405 | 78 | 223 | 2.0 | 7.0 | 0.00 | 0.00 | 0.00 | 41 | 1008.3 |
| 20260505160904 | 78 | 283 | 0.0 | 10.0 | 0.00 | 0.00 | 0.00 | 43 | 1008.4 |
| 20260505160409 | 78 | 257 | 1.0 | 5.0 | 0.00 | 0.00 | 0.00 | 44 | 1008.6 |
| 20260505160404 | 78 | 261 | 1.0 | 6.0 | 0.00 | 0.00 | 0.00 | 42 | 1008.5 |
| 20260505152902 | 76 | 234 | 0.0 | 1.0 | 0.00 | 0.00 | 0.00 | 46 | 1009.1 |
| 20260505152403 | 76 | 327 | 0.0 | 6.0 | 0.00 | 0.00 | 0.00 | 47 | 1009.1 |
| 20260505151908 | 74 | 251 | 0.0 | 2.0 | 0.00 | 0.00 | 0.00 | 46 | 1009.0 |
| 20260505151903 | 75 | 347 | 0.0 | 6.0 | 0.00 | 0.00 | 0.00 | 47 | 1009.2 |
| 20260505151401 | 74 | 265 | 0.0 | 2.0 | 0.00 | 0.00 | 0.00 | 46 | 1009.2 |
| 20260505150403 | 74 | 341 | 0.0 | 10.0 | 0.00 | 0.00 | 0.00 | 46 | 1009.2 |
| 20260505140400 | 71 | 262 | 0.0 | 10.0 | 0.00 | 0.00 | 0.00 | 55 | 1009.8 |
| 20260505124857 | 65 | 259 | 0.0 | 0.0 | 0.00 | 0.00 | 0.00 | 67 | 1010.0 |
| 20260505124355 | 64 | 162 | 0.0 | 0.0 | 0.00 | 0.00 | 0.00 | 68 | 1010.0 |
| 20260505123855 | 63 | 157 | 0.0 | 0.0 | 0.00 | 0.00 | 0.00 | 69 | 1010.0 |
| 20260505123355 | 61 | 202 | 0.0 | 0.0 | 0.00 | 0.00 | 0.00 | 73 | 1009.9 |
| 20260505122856 | 60 | 168 | 0.0 | 0.0 | 0.00 | 0.00 | 0.00 | 73 | 1010.0 |
| 20260505122356 | 59 | 94 | 0.0 | 0.0 | 0.00 | 0.00 | 0.00 | 74 | 1010.1 |
| 20260505121857 | 58 | 100 | 0.0 | 0.0 | 0.00 | 0.00 | 0.00 | 74 | 1010.2 |
| 20260505121356 | 57 | 210 | 0.0 | 0.0 | 0.00 | 0.00 | 0.00 | 75 | 1010.2 |
| 20260505120855 | 56 | 97 | 0.0 | 0.0 | 0.00 | 0.00 | 0.00 | 76 | 1010.3 |
| 20260505120355 | 55 | 96 | 0.0 | 0.0 | 0.00 | 0.00 | 0.00 | 79 | 1010.2 |
| 20260505115855 | 54 | 93 | 0.0 | 0.0 | 0.00 | 0.00 | 0.00 | 80 | 1010.2 |
| 20260505115359 | 52 | 193 | 0.0 | 0.0 | 0.00 | 0.00 | 0.00 | 83 | 1010.3 |
| 20260505115355 | 53 | 162 | 0.0 | 0.0 | 0.00 | 0.00 | 0.00 | 82 | 1010.2 |
| 20260505115008 | 51 | 243 | 0.0 | 0.0 | 0.00 | 0.00 | 0.00 | 86 | 1010.3 |
| 20260505114506 | 50 | 213 | 0.0 | 0.0 | 0.00 | 0.00 | 0.00 | 86 | 1010.4 |
| 20260505113404 | 49 | 224 | 0.0 | 0.0 | 0.00 | 0.00 | 0.00 | 88 | 1010.3 |
| 20260505113353 | 49 | 233 | 0.0 | 0.0 | 0.00 | 0.00 | 0.00 | 87 | 1010.3 |
| 20260505112354 | 48 | 214 | 0.0 | 0.0 | 0.00 | 0.00 | 0.00 | 88 | 1010.3 |
| 20260505111854 | 47 | 274 | 0.0 | 0.0 | 0.00 | 0.00 | 0.00 | 88 | 1010.3 |
| 20260505111354 | 47 | 274 | 0.0 | 0.0 | 0.00 | 0.00 | 0.00 | 88 | 1010.2 |
| 20260505110853 | 47 | 274 | 0.0 | 0.0 | 0.00 | 0.00 | 0.00 | 88 | 1010.2 |
| 20260505110353 | 47 | 265 | 0.0 | 0.0 | 0.00 | 0.00 | 0.00 | 88 | 1010.3 |
| 20260505101852 | 45 | 251 | 0.0 | 0.0 | 0.00 | 0.00 | 0.00 | 92 | 1009.9 |
| 20260505101351 | 44 | 251 | 0.0 | 0.0 | 0.00 | 0.00 | 0.00 | 92 | 1009.7 |
| 20260505100852 | 44 | 251 | 0.0 | 0.0 | 0.00 | 0.00 | 0.00 | 92 | 1009.7 |
| 20260505100356 | 44 | 271 | 0.0 | 0.0 | 0.00 | 0.00 | 0.00 | 92 | 1009.8 |
| 20260505100352 | 44 | 271 | 0.0 | 0.0 | 0.00 | 0.00 | 0.00 | 92 | 1009.6 |
| 20260505100006 | 44 | 259 | 0.0 | 0.0 | 0.00 | 0.00 | 0.00 | 92 | 1009.7 |
| 20260505095351 | 44 | 264 | 0.0 | 0.0 | 0.00 | 0.00 | 0.00 | 92 | 1009.8 |
| 20260505094350 | 44 | 278 | 0.0 | 0.0 | 0.00 | 0.00 | 0.00 | 92 | 1009.8 |
| 20260505093851 | 44 | 100 | 0.0 | 0.0 | 0.00 | 0.00 | 0.00 | 92 | 1009.8 |
| 20260505093351 | 43 | 100 | 0.0 | 0.0 | 0.00 | 0.00 | 0.00 | 91 | 1009.7 |
| 20260505092849 | 43 | 252 | 0.0 | 0.0 | 0.00 | 0.00 | 0.00 | 92 | 1009.7 |
| 20260505092352 | 43 | 248 | 0.0 | 0.0 | 0.00 | 0.00 | 0.00 | 92 | 1009.8 |
| 20260505091849 | 43 | 248 | 0.0 | 0.0 | 0.00 | 0.00 | 0.00 | 92 | 1009.7 |
| 20260505091351 | 43 | 257 | 0.0 | 0.0 | 0.00 | 0.00 | 0.00 | 91 | 1009.6 |
| 20260505090849 | 43 | 250 | 0.0 | 0.0 | 0.00 | 0.00 | 0.00 | 91 | 1009.7 |
| 20260505090349 | 43 | 250 | 0.0 | 0.0 | 0.00 | 0.00 | 0.00 | 91 | 1009.7 |
| 20260505085855 | 44 | 269 | 0.0 | 0.0 | 0.00 | 0.00 | 0.00 | 91 | 1009.4 |
| 20260505085850 | 43 | 269 | 0.0 | 0.0 | 0.00 | 0.00 | 0.00 | 91 | 1009.6 |
| 20260505084849 | 44 | 269 | 0.0 | 0.0 | 0.00 | 0.00 | 0.00 | 91 | 1009.5 |
| 20260505084348 | 44 | 265 | 0.0 | 0.0 | 0.00 | 0.00 | 0.00 | 91 | 1009.5 |
| 20260505083849 | 44 | 265 | 0.0 | 0.0 | 0.00 | 0.00 | 0.00 | 90 | 1009.5 |
| 20260505083348 | 44 | 265 | 0.0 | 0.0 | 0.00 | 0.00 | 0.00 | 90 | 1009.5 |
| 20260505082853 | 44 | 265 | 0.0 | 0.0 | 0.00 | 0.00 | 0.00 | 90 | 1009.5 |
| 20260505082849 | 44 | 265 | 0.0 | 0.0 | 0.00 | 0.00 | 0.00 | 90 | 1009.6 |
| 20260505082506 | 44 | 254 | 0.0 | 0.0 | 0.00 | 0.00 | 0.00 | 90 | 1009.6 |
| 20260505081848 | 44 | 265 | 0.0 | 0.0 | 0.00 | 0.00 | 0.00 | 90 | 1009.6 |
| 20260505081505 | 44 | 252 | 0.0 | 0.0 | 0.00 | 0.00 | 0.00 | 89 | 1009.6 |
| 20260505080347 | 44 | 252 | 0.0 | 0.0 | 0.00 | 0.00 | 0.00 | 89 | 1009.6 |
| 20260505075846 | 45 | 265 | 0.0 | 0.0 | 0.00 | 0.00 | 0.00 | 90 | 1009.6 |
| 20260505075347 | 45 | 261 | 0.0 | 0.0 | 0.00 | 0.00 | 0.00 | 89 | 1009.7 |
| 20260505074846 | 45 | 261 | 0.0 | 0.0 | 0.00 | 0.00 | 0.00 | 89 | 1009.7 |
| 20260505074347 | 45 | 261 | 0.0 | 0.0 | 0.00 | 0.00 | 0.00 | 89 | 1009.7 |
| 20260505073845 | 45 | 261 | 0.0 | 0.0 | 0.00 | 0.00 | 0.00 | 90 | 1009.8 |
| 20260505073345 | 45 | 261 | 0.0 | 0.0 | 0.00 | 0.00 | 0.00 | 89 | 1009.8 |
| 20260505072845 | 45 | 261 | 0.0 | 0.0 | 0.00 | 0.00 | 0.00 | 89 | 1009.7 |
| 20260505072345 | 45 | 266 | 0.0 | 0.0 | 0.00 | 0.00 | 0.00 | 89 | 1009.6 |
| 20260505071842 | 45 | 261 | 0.0 | 0.0 | 0.00 | 0.00 | 0.00 | 89 | 1009.8 |
| 20260505071345 | 45 | 265 | 0.0 | 0.0 | 0.00 | 0.00 | 0.00 | 89 | 1009.8 |
| 20260505070846 | 45 | 265 | 0.0 | 0.0 | 0.00 | 0.00 | 0.00 | 89 | 1009.7 |
| 20260505070345 | 45 | 265 | 0.0 | 0.0 | 0.00 | 0.00 | 0.00 | 89 | 1009.8 |
| 20260505065845 | 45 | 265 | 0.0 | 0.0 | 0.00 | 0.00 | 0.00 | 88 | 1009.6 |
| 20260505065345 | 45 | 268 | 0.0 | 0.0 | 0.00 | 0.00 | 0.00 | 88 | 1009.7 |
| 20260505064844 | 45 | 258 | 0.0 | 0.0 | 0.00 | 0.00 | 0.00 | 89 | 1009.8 |
| 20260505064344 | 45 | 251 | 0.0 | 0.0 | 0.00 | 0.00 | 0.00 | 89 | 1009.9 |
| 20260505063844 | 45 | 251 | 0.0 | 0.0 | 0.00 | 0.00 | 0.00 | 89 | 1009.9 |
| 20260505063344 | 45 | 250 | 0.0 | 0.0 | 0.00 | 0.00 | 0.00 | 89 | 1009.9 |
| 20260505062849 | 45 | 250 | 0.0 | 0.0 | 0.00 | 0.00 | 0.00 | 89 | 1009.9 |
| 20260505062845 | 45 | 250 | 0.0 | 0.0 | 0.00 | 0.00 | 0.00 | 89 | 1009.8 |
| 20260505061843 | 45 | 250 | 0.0 | 0.0 | 0.00 | 0.00 | 0.00 | 89 | 1009.9 |
| 20260505061342 | 45 | 250 | 0.0 | 0.0 | 0.00 | 0.00 | 0.00 | 89 | 1009.9 |
| 20260505060848 | 45 | 250 | 0.0 | 0.0 | 0.00 | 0.00 | 0.00 | 88 | 1009.8 |
| 20260505060843 | 45 | 250 | 0.0 | 0.0 | 0.00 | 0.00 | 0.00 | 89 | 1009.9 |
| 20260505055844 | 45 | 250 | 0.0 | 0.0 | 0.00 | 0.00 | 0.00 | 88 | 1009.9 |
| 20260505055343 | 45 | 266 | 0.0 | 0.0 | 0.00 | 0.00 | 0.00 | 88 | 1009.9 |
| 20260505054844 | 45 | 259 | 0.0 | 0.0 | 0.00 | 0.00 | 0.00 | 88 | 1009.9 |
| 20260505054348 | 46 | 259 | 0.0 | 0.0 | 0.00 | 0.00 | 0.00 | 87 | 1009.9 |
| 20260505054344 | 46 | 259 | 0.0 | 0.0 | 0.00 | 0.00 | 0.00 | 87 | 1009.9 |
| 20260505053346 | 46 | 259 | 0.0 | 0.0 | 0.00 | 0.00 | 0.00 | 86 | 1010.0 |
| 20260505053342 | 46 | 259 | 0.0 | 0.0 | 0.00 | 0.00 | 0.00 | 87 | 1009.9 |
| 20260505052339 | 46 | 252 | 0.0 | 0.0 | 0.00 | 0.00 | 0.00 | 86 | 1010.0 |
| 20260505051841 | 46 | 252 | 0.0 | 0.0 | 0.00 | 0.00 | 0.00 | 87 | 1010.0 |
| 20260505051340 | 46 | 266 | 0.0 | 0.0 | 0.00 | 0.00 | 0.00 | 86 | 1010.1 |
| 20260505050841 | 46 | 266 | 0.0 | 0.0 | 0.00 | 0.00 | 0.00 | 86 | 1010.0 |
| 20260505050339 | 46 | 266 | 0.0 | 0.0 | 0.00 | 0.00 | 0.00 | 85 | 1010.1 |
| 20260505041339 | 47 | 266 | 0.0 | 0.0 | 0.00 | 0.00 | 0.00 | 83 | 1010.0 |
| 20260505040838 | 48 | 266 | 0.0 | 0.0 | 0.00 | 0.00 | 0.00 | 83 | 1010.0 |
| 20260505040338 | 48 | 264 | 0.0 | 0.0 | 0.00 | 0.00 | 0.00 | 83 | 1009.9 |
| 20260505035844 | 48 | 264 | 0.0 | 0.0 | 0.00 | 0.00 | 0.00 | 82 | 1010.1 |
| 20260505035839 | 48 | 250 | 0.0 | 0.0 | 0.00 | 0.00 | 0.00 | 82 | 1010.0 |
| 20260505035451 | 48 | 268 | 0.0 | 0.0 | 0.00 | 0.00 | 0.00 | 82 | 1010.0 |
| 20260505034338 | 48 | 268 | 0.0 | 0.0 | 0.00 | 0.00 | 0.00 | 81 | 1009.9 |
| 20260505033837 | 48 | 268 | 0.0 | 0.0 | 0.00 | 0.00 | 0.00 | 81 | 1009.9 |